TIANMU-1 15 (58700 NORAD) Tracking and Keplerian Element Data

This shows tracking and keplerian element data for the satellite.

Feedback or suggestion? Click here.




ElementValue
Catalog58700
NameTIANMU-1 15
Epoch Orbit115
Epoch Day13.11734634
Epoch Year2024
RAAN197.3397
Inclination97.4558
Eccentricity0.0010342
Argument of Perigee227.9584
Mean Anonmoly132.0768
Mean Motion15.13680667
Decay Rate7.705E-05
L11 58700U 24004A 24013.11734634 .00007705 00000+0 43120-3 0 9990
L22 58700 97.4558 197.3397 0010342 227.9584 132.0768 15.13680667 1153



Live tracking and technical data element details for TIANMU-1 15 (NORAD 58700). TIANMU-1 15 can be tracked NOW for your location showing map with azimuth and elevation plus other details from your city location.







IsCatalogInMostPopularTable: catalog: 58700, numindb: 24
Update: records affected: 1



GetName: 58700 TIANMU-1 15

Hit Count: updated at: Wed, 17 Apr 2024 02:42:20 GMT